Tracking 35048 objects as of 19-Aug-2026
HD Live streaming from Space Station
objects crossing your sky now

METEOR M2-2

Track METEOR M2-2 now!
10-day predictions
METEOR M2-2 is classified as:


NORAD ID: 44387
Int'l Code: 2019-038A
Launch date: July 5, 2019
Source: Commonwealth of Independent States (former USSR) (CIS)
Launch site: VOSTOCHNY COSMODROME (VOSTO)

Uplink (MHz):
Downlink (MHz): 137.100/137.900
Beacon (MHz): 1700.000*
Mode: 72K QPSK AHRPT*
Call sign:
Status:

Your satellite tracking list
Your tracking list is empty




NASA's NSSDC Master Catalog

Two Line Element Set (TLE):
1 44387U 19038A   26230.97416626 -.00000362  00000-0 -13653-3 0  9995
2 44387  98.9208 219.2027 0001271 142.7680 217.3586 14.24378422370230
Source of the keplerian elements: AFSPC